This is the latest recevied weather packets stored in our database for station/object N3WAX-1. If no packets are shown the sender has not sent any weather packets the latest 10 day(s).
| Time | Temp. | Humidity | Pressure | Rain* | Wind** | Luminosity | Snow |
|---|---|---|---|---|---|---|---|
| 1777676388 | 15° C | 51% | 1011 hPa | 0 mm | - | 81 W/m² | - |
| 1777675348 | 15.56° C | 50% | 1010.9 hPa | 0 mm | - | 128 W/m² | - |
| 1777674143 | 15.56° C | 52% | 1011.1 hPa | 0 mm | - | 202 W/m² | - |
| 1777672637 | 16.11° C | 51% | 1011.3 hPa | 0 mm | - | 294 W/m² | - |
| 1777671100 | 16.11° C | 54% | 1011.3 hPa | 0 mm | - | 381 W/m² | - |
| 1777668028 | 16.11° C | 55% | 1011.4 hPa | 0 mm | - | 548 W/m² | - |
| 1777667411 | 16.67° C | 48% | 1011.5 hPa | 0 mm | - | 580 W/m² | - |
| 1777665602 | 16.67° C | 54% | 1011.8 hPa | 0 mm | - | 675 W/m² | - |
| 1777665002 | 16.67° C | 54% | 1011.9 hPa | 0 mm | - | 696 W/m² | - |
| 1777663502 | 16.67° C | 52% | 1012 hPa | 0 mm | - | 796 W/m² | - |
| 1777662904 | 16.67° C | 53% | 1012 hPa | 0 mm | - | 795 W/m² | - |
| 1777661990 | 16.67° C | 48% | 1012.1 hPa | 0 mm | - | 875 W/m² | - |
| 1777660027 | 16.11° C | 55% | 1012.6 hPa | 0 mm | - | 974 W/m² | - |
| 1777658988 | 16.11° C | 52% | 1012.7 hPa | 0 mm | - | 974 W/m² | - |
| 1777655684 | 14.44° C | 59% | 1012.9 hPa | 0 mm | - | 935 W/m² | - |
| 1777653585 | 14.44° C | 54% | 1013.3 hPa | 0 mm | - | 940 W/m² | - |
| 1777653283 | 13.89° C | 52% | 1013.5 hPa | 0 mm | - | 937 W/m² | - |
| 1777649827 | 13.33° C | 60% | 1014.3 hPa | 0 mm | - | 893 W/m² | - |
| 1777649080 | 12.78° C | 56% | 1014.5 hPa | 0 mm | - | 884 W/m² | - |
| 1777646979 | 12.78° C | 56% | 1014.6 hPa | 0 mm | - | 828 W/m² | - |
| 1777645770 | 11.67° C | 60% | 1014.9 hPa | 0 mm | - | 784 W/m² | - |
| 1777644266 | 11.67° C | 65% | 1014.9 hPa | 0 mm | - | 729 W/m² | - |
| 1777643967 | 11.67° C | 62% | 1014.8 hPa | 0 mm | - | 712 W/m² | - |
| 1777643366 | 12.22° C | 68% | 1014.8 hPa | 0 mm | - | 693 W/m² | - |
| 1777642766 | 11.67° C | 69% | 1014.8 hPa | 0 mm | - | 661 W/m² | - |
* Rain latest hour (hover to see other rain measurements)
** Current wind speed in m/s (hover to see current wind gust speed)